{"data":{"norad_id":58640,"epoch":"2026-05-24T22:50:22.108992Z","epoch_age_seconds":78920,"freshness":"FRESH","line1":"1 58640U 23203Y   26144.95164478 -.00001871  00000+0 -58500-4 0  9994","line2":"2 58640  43.0054 348.7147 0001047 296.4448  63.6296 15.27564994135322","mean_motion":15.27564994,"eccentricity":0.0001047,"inclination_deg":43.0054,"raan_deg":348.7147,"arg_perigee_deg":296.4448,"mean_anomaly_deg":63.6296,"bstar":-5.85e-5,"rev_number":13532,"period_min":94.267674740915,"perigee_km":482.37565888105,"apogee_km":483.81240065868,"semimajor_km":6861.2310297699,"source":"CELESTRAK","updated_at":"2026-05-25T13:38:18.709712Z"}}